SPACEMOBILE-SSR04 DEB, 62372

Orbit data source: Space-Track

SPACEMOBILE-SSR04 DEB, 62372 is space debris in LEO originally from a launch on Thu, 12 Sep 2024 UTC launched from the Air Force Eastern Test Range (AFETR). Debris objects in space refer to the collection of defunct objects orbiting the Earth. Examples of debris include non-operational satellites, rocket bodies, and fragments generated from explosions, collisions, or faulty payload assembly.

Loading next visibility...
Identifier
62372, 2024-163J
Orbit
LEO
Country
Flag of USUS
Related business
Manufacturer
AST & Science
Mission
Spacecraft
Bus & Motor
BW3 LVA, Unknown motor
Mass
150 kg wet, 150 kg dry
Launch date (UTC)
2024-09-12 (2 years ago)
Launch vehicle
Unknown
Launch site
Air Force Eastern Test Range (AFETR)
Object type
Payload
Rocket body
Debris
Shape & HBR
Cyl, 3.8 m
Radar Cross Section
1.963 m², Large (>1 m²)

Expand to show TLE details & history
Last TLE update: 17 hours ago

TLE from 17 hours ago
0 SPACEMOBILE-SSR04 DEB
1 62372U 24163J   26094.86031952  .00024080  00000-0  64553-3 0  9991
2 62372  52.9855 257.4285 0004485 299.7964  60.2592 15.37873404 83665
Epoch: 2026-04-04T20:38Z
TLE epoch observation values (Epoch: 2026-04-04T20:38:51.606Z)
Latitude
0.00002°
Longitude
114.53945°
Altitude
451.764 km
Speed
7.643 km/s
True Right ascension
17h 09m 42s
True Declination
0° 00' 00"
Sunlit
Object was in full shadow at epoch
Visualization orbit readout
Latitude
Unknown
Longitude
Unknown
Altitude
Unknown
Speed
Unknown
Apparent Right ascension
Unknown
Apparent Declination
Unknown
Sunlit
N/A
Visualization observer readout
Local Sidereal Time
19:26:43
Azimuth
Unknown
Elevation
Unknown
Doppler factor
Unknown
Orbital elements
Apogee altitude
455.748 km
Perigee altitude
449.621 km
Semi-major axis
6,830.822 km
Eccentricity
0.00045
Inclination
52.9855°
RAAN
257.4285°
Arg. of periapsis
299.7964°
True anomaly
60.30384°
Mean anomaly
60.2592°
Eccentric anomaly
60.28152°
Mean motion
3.84445 °/min
Orbital period
93.64 mins
BSTAR
0.00064553
Loading maneuver chart data...
Computing Atmospheric mass density...
Loading historical data...
Loading historical data...
Loading historical data...
Loading historical data...
Loading historical data...
Loading historical data...
Loading historical data...

Documentation

Showing up to 5 results
|